Retour au catalogue

SL-8 DEB

ActifLEO
NORAD 21918·DEBRIS·🇷🇺 Russia

Lancé Feb 12, 1991 depuis Plesetsk Cosmodrome

Loading…

Prochains Passages (prochaines 24 heures)

TLE

FraisSource: Space-Track

Époque: Sep 14, 2026, 04:50 UTC

1 21918U 91009CB  26257.20148464 -.00000001  00000-0  11514-3 0  9998
2 21918  74.0788  72.6918 0123338  56.3815   1.6833 12.22340729583120

Suivez SL-8 DEB en temps réel avec AllMySat

Download on the App Store